Weather History for Corning, AR

Change the Weather History Date:

Thursday, December 6, 2012

  Actual Average (KARG) Record (KARG)
Temperature  
Mean Temperature 50 °F -  
Max Temperature 57 °F 49 °F 71 °F (1998)
Min Temperature 44 °F 34 °F 19 °F (2013)
Degree Days  
Heating Degree Days 14    
Moisture  
Dew Point 51 °F    
Average Humidity 90    
Maximum Humidity 100    
Minimum Humidity 71    
Precipitation  
Precipitation 0.00 in - - ()
Sea Level Pressure  
Sea Level Pressure 29.97 in    
Wind  
Wind Speed 6 mph (SE)    
Max Wind Speed 10 mph    
Max Gust Speed -    
Visibility 6 miles    
Events Fog    
Averages and records for this station are not official NWS values.
T = Trace of Precipitation, MM = Missing Value Source: NWS Daily Summary

Daily Weather History Graph

Daily Weather History Graph

Search for Another Location

Airport:

Trip Planner

Search our weather history database for the weather conditions in past years. The results will help you decide how hot, cold, wet, or windy it might be!

Date:

Astronomy

Dec. 06, 2012 Rise Set
Actual Time 7:00 AM CST 4:47 PM CST
Civil Twilight 6:32 AM CST 5:15 PM CST
Nautical Twilight 5:59 AM CST 5:47 PM CST
Astronomical Twilight 5:28 AM CST 6:18 PM CST
Moon No Moon Rise 12:03 PM CST (12/6)
Length of Visible Light 10h 43m
Length of Day
9h 46m
Waning Gibbous, 49% of the Moon is Illuminated
Dec 6
Waning Gibbous
Dec 13
New
Dec 19
First Quarter
Dec 28
Full
Jan 4
Last Quarter

Hourly Weather History & Observations

Time (CST) Temp. Windchill Dew Point Humidity Pressure Visibility Wind Dir Wind Speed Gust Speed Precip Events Conditions
7:35 AM 44.6 °F 43.1 °F 41.0 °F 87% 30.08 in 8.0 mi NE 3.5 mph - N/A   Unknown
7:55 AM 44.6 °F 43.1 °F 41.0 °F 87% 30.08 in 10.0 mi NNE 3.5 mph - N/A   Unknown
8:15 AM 46.4 °F 45.2 °F 41.0 °F 81% 30.08 in 9.0 mi NE 3.5 mph - N/A   Unknown
8:35 AM 46.4 °F 43.5 °F 39.2 °F 76% 30.06 in 9.0 mi ENE 5.8 mph - N/A   Unknown
8:55 AM 48.2 °F - 39.2 °F 71% 30.06 in 10.0 mi East 6.9 mph - N/A   Unknown
9:15 AM 48.2 °F - 39.2 °F 71% 30.07 in 10.0 mi East 4.6 mph - N/A   Unknown
9:35 AM - - - N/A% - - North - - N/A   Unknown
9:55 AM - - - N/A% - - North - - N/A   Unknown
10:15 AM - - - N/A% - - North - - N/A   Unknown
2:55 PM - - - N/A% 29.96 in - ESE 5.8 mph - N/A   Unknown
3:15 PM 57.2 °F - 48.2 °F 72% 29.96 in 10.0 mi SE 4.6 mph - N/A   Unknown
3:35 PM 57.2 °F - 48.2 °F 72% 29.95 in 10.0 mi SE 4.6 mph - N/A   Unknown
3:55 PM 57.2 °F - 48.2 °F 72% 29.96 in 10.0 mi East 4.6 mph - N/A   Unknown
4:15 PM 57.2 °F - 48.2 °F 72% 29.96 in 10.0 mi ESE 3.5 mph - N/A   Unknown
4:35 PM 57.2 °F - 50.0 °F 77% 29.95 in 10.0 mi SE 3.5 mph - N/A   Unknown
4:55 PM 57.2 °F - 51.8 °F 82% 29.95 in 10.0 mi SSE 4.6 mph - N/A   Unknown
5:15 PM 57.2 °F - 53.6 °F 88% 29.95 in 10.0 mi SE 8.1 mph - N/A   Unknown
5:35 PM 55.4 °F - 53.6 °F 94% 29.95 in 10.0 mi SE 8.1 mph - N/A   Unknown
5:55 PM 55.4 °F - 53.6 °F 94% 29.95 in 10.0 mi SE 6.9 mph - N/A   Unknown
6:15 PM 55.4 °F - 53.6 °F 94% 29.95 in 10.0 mi SE 10.4 mph - N/A   Unknown
6:35 PM 55.4 °F - 53.6 °F 94% 29.96 in 9.0 mi SE 9.2 mph - N/A   Unknown
7:15 PM 55.4 °F - 53.6 °F 94% 29.96 in 5.0 mi SSE 9.2 mph - N/A   Mist
7:35 PM 53.6 °F - 53.6 °F 100% 29.96 in 5.0 mi SSE 9.2 mph - N/A   Mist
7:55 PM 55.4 °F - 53.6 °F 94% 29.96 in 4.0 mi SSE 10.4 mph - N/A   Mist
8:15 PM 55.4 °F - 55.4 °F 100% 29.96 in 4.0 mi SSE 5.8 mph - N/A   Mist
8:35 PM 55.4 °F - 55.4 °F 100% 29.95 in 4.0 mi SSE 6.9 mph - N/A   Mist
8:55 PM 55.4 °F - 55.4 °F 100% 29.95 in 3.0 mi SE 5.8 mph - N/A   Mist
9:15 PM 53.6 °F - 53.6 °F 100% 29.95 in 3.0 mi SE 5.8 mph - N/A   Mist
9:35 PM 53.6 °F - 53.6 °F 100% 29.95 in 2.0 mi SE 5.8 mph - N/A   Mist
9:55 PM 55.4 °F - 55.4 °F 100% 29.95 in 2.0 mi SSE 5.8 mph - N/A   Mist
10:15 PM 55.4 °F - 55.4 °F 100% 29.95 in 1.8 mi SSE 6.9 mph - N/A   Mist
10:35 PM 55.4 °F - 55.4 °F 100% 29.94 in 0.8 mi SSE 8.1 mph - N/A   Mist
10:55 PM 55.4 °F - 55.4 °F 100% 29.94 in 0.8 mi SSE 5.8 mph - N/A   Mist
11:15 PM 55.4 °F - 55.4 °F 100% 29.94 in 0.2 mi SE 5.8 mph - N/A Fog Fog
11:35 PM 55.4 °F - 55.4 °F 100% 29.93 in 0.5 mi SSE 5.8 mph - N/A Fog Fog
11:55 PM 55.4 °F - 55.4 °F 100% 29.93 in 1.0 mi SE 8.1 mph - N/A   Mist